Bellaire, MI

10:51 PM EDT on October 18, 2017 (GMT -0400)
Antrim County

Weather History for KACB - January, 2014

Change the Weather History Date:

Tuesday, January 7, 2014

  Actual Average (KCVX) Record (KCVX)
Temperature  
Mean Temperature 4 °F -  
Max Temperature 9 °F 32 °F 42 °F (2007)
Min Temperature 0 °F 25 °F 0 °F (2014)
Degree Days  
Heating Degree Days 60    
Moisture  
Dew Point -1 °F    
Average Humidity 74    
Maximum Humidity 83    
Minimum Humidity 60    
Precipitation  
Precipitation 0.00 in - - ()
Sea Level Pressure  
Sea Level Pressure 29.97 in    
Wind  
Wind Speed 9 mph (WSW)    
Max Wind Speed 14 mph    
Max Gust Speed 29 mph    
Visibility 4 miles    
Events Snow    
Averages and records for this station are not official NWS values.
T = Trace of Precipitation, MM = Missing Value Source: NWS Daily Summary

Daily Weather History Graph

Daily Weather History Graph

Search for Another Location

Airport or City:

Trip Planner

Search our weather history database for the weather conditions in past years. The results will help you decide how hot, cold, wet, or windy it might be!

Date:

Astronomy

Jan. 07, 2014 Rise Set
Actual Time 8:18 AM EST 5:16 PM EST
Civil Twilight 7:45 AM EST 5:49 PM EST
Nautical Twilight 7:08 AM EST 6:26 PM EST
Astronomical Twilight 6:32 AM EST 7:01 PM EST
Moon 11:46 AM EST (1/7) 12:06 AM EST (1/7)
Length of Visible Light 10h 04m
Length of Day
8h 57m
Waxing Crescent, 45% of the Moon is Illuminated
Jan 7
Waxing Crescent
Jan 7
First Quarter
Jan 15
Full
Jan 24
Last Quarter
Jan 30
New

Hourly Weather History & Observations

Time (EST) Temp. Windchill Dew Point Humidity Pressure Visibility Wind Dir Wind Speed Gust Speed Precip Events Conditions
12:13 AM 0.3 °F -14.8 °F -7.8 °F 69% 29.87 in 3.0 mi WSW 9.2 mph 18.4 mph N/A Snow Light Snow
12:33 AM 0.1 °F -9.7 °F -8.9 °F 66% 29.87 in 5.0 mi West 4.6 mph 16.1 mph N/A Snow Light Snow
12:54 AM 0.5 °F -14.6 °F -7.8 °F 68% 29.86 in 5.0 mi WSW 9.2 mph - N/A Snow Light Snow
1:13 AM 0.5 °F -12.3 °F -8.5 °F 66% 29.86 in 7.0 mi WSW 6.9 mph 17.3 mph N/A   Overcast
1:33 AM 1.0 °F -14.0 °F -6.3 °F 71% 29.86 in 2.5 mi WSW 9.2 mph 16.1 mph N/A Snow Light Snow
1:54 AM 1.2 °F -11.5 °F -5.4 °F 74% 29.86 in 2.0 mi WSW 6.9 mph 17.3 mph N/A Snow Light Snow
2:13 AM 1.2 °F -12.7 °F -6.2 °F 71% 29.86 in 2.5 mi WSW 8.1 mph 20.7 mph N/A Snow Light Snow
2:33 AM 1.6 °F -13.3 °F -7.1 °F 67% 29.86 in 5.0 mi WSW 9.2 mph - N/A Snow Light Snow
2:54 AM 1.9 °F -15.5 °F -7.4 °F 65% 29.86 in 7.0 mi West 12.7 mph 21.9 mph N/A   Overcast
3:13 AM 2.1 °F -10.4 °F -6.7 °F 67% 29.87 in 5.0 mi West 6.9 mph 18.4 mph N/A Snow Light Snow
3:33 AM 2.1 °F -10.4 °F -6.5 °F 67% 29.87 in 3.0 mi West 6.9 mph 23.0 mph N/A Snow Light Snow
3:54 AM 2.1 °F -11.6 °F -5.3 °F 71% 29.87 in 2.5 mi West 8.1 mph 17.3 mph N/A Snow Light Snow
4:13 AM 2.3 °F -13.4 °F -5.4 °F 70% 29.87 in 3.0 mi West 10.4 mph 19.6 mph N/A Snow Light Snow
4:33 AM 2.3 °F -15.0 °F -7.4 °F 64% 29.87 in 10.0 mi West 12.7 mph 20.7 mph N/A   Overcast
4:53 AM 2.7 °F -15.3 °F -8.3 °F 60% 29.88 in 7.0 mi West 13.8 mph 21.9 mph N/A   Overcast
5:13 AM 2.7 °F -10.9 °F -6.2 °F 67% 29.88 in 3.0 mi West 8.1 mph 21.9 mph N/A Snow Light Snow
5:34 AM 2.3 °F -8.8 °F -4.0 °F 75% 29.89 in 1.8 mi West 5.8 mph 17.3 mph N/A Snow Light Snow
5:53 AM 2.7 °F -12.0 °F -4.7 °F 71% 29.88 in 4.0 mi West 9.2 mph - N/A Snow Light Snow
6:13 AM 3.0 °F -13.3 °F -4.4 °F 71% 29.88 in 3.0 mi West 11.5 mph 19.6 mph N/A Snow Light Snow
6:34 AM 2.8 °F -8.2 °F -2.6 °F 78% 29.89 in 1.0 mi WSW 5.8 mph 19.6 mph N/A Snow Light Snow
6:53 AM 2.8 °F -11.7 °F -2.0 °F 80% 29.89 in 1.0 mi WSW 9.2 mph 16.1 mph N/A Snow Snow
7:13 AM 2.8 °F -10.7 °F -1.8 °F 81% 29.89 in 0.8 mi WSW 8.1 mph - N/A Snow Snow
7:34 AM 3.0 °F -10.5 °F -1.8 °F 80% 29.90 in 1.0 mi WSW 8.1 mph 19.6 mph N/A Snow Light Snow
7:53 AM 2.8 °F -12.7 °F -2.2 °F 79% 29.90 in 1.2 mi SW 10.4 mph 19.6 mph N/A Snow Light Snow
8:13 AM 2.7 °F -14.5 °F -3.1 °F 77% 29.90 in 1.8 mi WSW 12.7 mph 20.7 mph N/A Snow Light Snow
8:33 AM 2.8 °F -12.7 °F -3.3 °F 76% 29.90 in 1.8 mi SW 10.4 mph 23.0 mph N/A Snow Light Snow
8:53 AM 3.2 °F -11.3 °F -2.6 °F 77% 29.91 in 1.2 mi WSW 9.2 mph 19.6 mph N/A Snow Light Snow
9:14 AM 3.7 °F -12.4 °F -1.7 °F 78% 29.91 in 1.0 mi SW 11.5 mph 21.9 mph N/A Snow Light Snow
9:33 AM 4.6 °F -12.0 °F -0.9 °F 78% 29.92 in 1.2 mi SW 12.7 mph 19.6 mph N/A Snow Light Snow
9:53 AM 5.0 °F -10.8 °F -1.3 °F 75% 29.93 in 1.2 mi SW 11.5 mph 24.2 mph N/A Snow Light Snow
10:14 AM 5.7 °F -11.4 °F -0.6 °F 75% 29.93 in 3.0 mi WSW 13.8 mph 24.2 mph N/A   Haze
10:33 AM 6.3 °F -9.2 °F -0.4 °F 74% 29.93 in 2.5 mi WSW 11.5 mph 26.5 mph N/A   Haze
10:53 AM 6.8 °F -8.6 °F 0.1 °F 74% 29.93 in 1.8 mi SW 11.5 mph 23.0 mph N/A   Haze
11:14 AM 7.2 °F -9.6 °F 0.9 °F 75% 29.94 in 0.8 mi WSW 13.8 mph 28.8 mph N/A Snow Light Snow
11:33 AM 6.8 °F -7.8 °F 1.0 °F 77% 29.94 in 0.8 mi WSW 10.4 mph 23.0 mph N/A Snow Light Snow
11:53 AM 6.8 °F -6.9 °F 2.1 °F 81% 29.95 in 0.2 mi West 9.2 mph 21.9 mph N/A Snow Light Snow
12:14 PM 7.2 °F -8.1 °F -0.0 °F 72% 29.95 in 1.0 mi West 11.5 mph 20.7 mph N/A Snow Light Snow
12:33 PM 7.3 °F -6.2 °F 1.8 °F 78% 29.95 in 0.8 mi West 9.2 mph - N/A Snow Light Snow
12:54 PM 7.7 °F -8.9 °F -0.2 °F 70% 29.95 in 2.0 mi West 13.8 mph 25.3 mph N/A   Haze
1:13 PM 7.7 °F -3.7 °F 0.5 °F 72% 29.96 in 1.5 mi West 6.9 mph 19.6 mph N/A Snow Light Snow
1:33 PM 8.1 °F -6.2 °F 2.1 °F 77% 29.95 in 1.2 mi West 10.4 mph - N/A Snow Light Snow
1:54 PM 7.7 °F -4.8 °F 3.0 °F 81% 29.96 in 0.5 mi West 8.1 mph 17.3 mph N/A Snow Light Snow
2:13 PM 7.7 °F -7.4 °F 2.3 °F 79% 29.96 in 0.8 mi SW 11.5 mph 16.1 mph N/A Snow Light Snow
2:33 PM 7.7 °F -8.2 °F 1.8 °F 77% 29.97 in 1.0 mi WSW 12.7 mph 21.9 mph N/A Snow Light Snow
2:54 PM 7.7 °F -7.4 °F 0.5 °F 72% 29.98 in 2.0 mi SW 11.5 mph 20.7 mph N/A Snow Light Snow
3:13 PM 7.7 °F -7.4 °F 0.9 °F 74% 29.98 in 3.0 mi WSW 11.5 mph 20.7 mph N/A   Haze
3:33 PM 7.7 °F -6.6 °F 0.7 °F 73% 29.99 in 3.0 mi WSW 10.4 mph 23.0 mph N/A   Haze
3:54 PM 8.1 °F -6.2 °F 0.9 °F 72% 30.01 in 4.0 mi WSW 10.4 mph 19.6 mph N/A   Haze
4:13 PM 7.7 °F -6.6 °F 0.5 °F 72% 30.01 in 5.0 mi SW 10.4 mph 19.6 mph N/A   Haze
4:33 PM 7.5 °F -5.0 °F 0.5 °F 73% 30.01 in 7.0 mi SW 8.1 mph 18.4 mph N/A   Overcast
4:54 PM 7.5 °F -5.0 °F 0.3 °F 72% 30.03 in 7.0 mi SW 8.1 mph - N/A   Overcast
5:13 PM 7.3 °F -7.1 °F -0.2 °F 71% 30.03 in 5.0 mi SW 10.4 mph 21.9 mph N/A   Haze
5:33 PM 7.3 °F -5.2 °F -0.4 °F 71% 30.04 in 10.0 mi WSW 8.1 mph 19.6 mph N/A   Overcast
5:54 PM 7.7 °F -5.8 °F -0.0 °F 71% 30.04 in 10.0 mi SW 9.2 mph 19.6 mph N/A   Overcast
6:13 PM 7.7 °F -4.8 °F 0.1 °F 71% 30.05 in 10.0 mi WSW 8.1 mph 19.6 mph N/A   Overcast
6:33 PM 7.7 °F -5.8 °F 0.5 °F 72% 30.06 in 10.0 mi SW 9.2 mph - N/A   Overcast
6:54 PM 7.7 °F -4.8 °F 0.7 °F 73% 30.06 in 10.0 mi SW 8.1 mph 16.1 mph N/A   Overcast
7:13 PM 8.1 °F -0.5 °F 1.4 °F 74% 30.07 in 7.0 mi SW 4.6 mph - N/A Snow Light Snow
7:33 PM 8.1 °F -3.2 °F 1.4 °F 74% 30.08 in 4.0 mi WSW 6.9 mph 19.6 mph N/A Snow Light Snow
7:54 PM 8.2 °F -3.0 °F 2.3 °F 77% 30.09 in 4.0 mi SW 6.9 mph 16.1 mph N/A Snow Light Snow
8:13 PM 8.6 °F -1.3 °F 2.8 °F 77% 30.09 in 7.0 mi SW 5.8 mph 16.1 mph N/A Snow Light Snow
8:33 PM 8.8 °F -1.1 °F 3.2 °F 78% 30.10 in 5.0 mi SW 5.8 mph - N/A Snow Light Snow
8:54 PM 9.0 °F -2.2 °F 3.2 °F 77% 30.11 in 3.0 mi WSW 6.9 mph - N/A Snow Light Snow
9:13 PM 9.1 °F 0.8 °F 4.1 °F 80% 30.10 in 2.0 mi SW 4.6 mph - N/A Snow Light Snow
9:33 PM 9.1 °F -0.7 °F 4.5 °F 81% 30.11 in 1.8 mi WSW 5.8 mph - N/A Snow Light Snow
9:53 PM 9.1 °F -1.9 °F 4.8 °F 83% 30.12 in 1.5 mi SW 6.9 mph - N/A Snow Light Snow
10:13 PM 9.1 °F -4.0 °F 4.5 °F 81% 30.12 in 2.0 mi WSW 9.2 mph - N/A Snow Light Snow
10:34 PM 9.5 °F -3.5 °F 4.8 °F 81% 30.13 in 2.0 mi SW 9.2 mph - N/A Snow Light Snow
10:53 PM 9.5 °F -3.5 °F 4.8 °F 81% 30.13 in 2.5 mi WSW 9.2 mph - N/A Snow Light Snow
11:13 PM 9.5 °F 1.2 °F 4.8 °F 81% 30.13 in 2.0 mi WSW 4.6 mph - N/A Snow Light Snow
11:34 PM 9.5 °F -4.4 °F 4.1 °F 79% 30.14 in 5.0 mi SW 10.4 mph 18.4 mph N/A Snow Light Snow
11:53 PM 9.5 °F -2.6 °F 3.4 °F 76% 30.14 in 5.0 mi SW 8.1 mph - N/A Snow Light Snow